DELTA 1 DEB, 14905

Orbit data source: Space-Track

DELTA 1 DEB, 14905 is space debris in SSO originally from a launch on Thu, 29 Jul 1976 UTC launched from the Air Force Western Test Range (AFWTR). Debris objects in space refer to the collection of defunct objects orbiting the Earth. Examples of debris include non-operational satellites, rocket bodies, and fragments generated from explosions, collisions, or faulty payload assembly.

Loading next visibility...
Identifier
14905, 1976-077ET
Orbit
SSO
Country
Flag of USUS
Related business
Manufacturer
Unknown
Mission
Spacecraft
Bus & Motor
Unknown
Mass
Unknown
Launch date (UTC)
1976-07-29 (50 years ago)
Launch vehicle
Unknown
Launch site
Air Force Western Test Range (AFWTR)
Object type
Payload
Rocket body
Debris
Shape & HBR
Unknown shape, 0.1 m
Radar Cross Section
Small (<0.1 m²)

Expand to show TLE details & history
Last TLE update: 19 hours ago

TLE from 19 hours ago
0 DELTA 1 DEB
1 14905U 76077ET  26104.10395162 -.00000030  00000-0  11629-3 0  9992
2 14905 102.2611 163.4919 0185092 120.7183 270.4579 12.07379149910629
Epoch: 2026-04-14T02:29Z
TLE epoch observation values (Epoch: 2026-04-14T02:29:41.419Z)
Latitude
28.37393°
Longitude
-82.92398°
Altitude
1,652.698 km
Speed
7.048 km/s
True Right ascension
10h 27m 08s
True Declination
28° 14' 47"
Sunlit
Object was in daylight at epoch
Visualization orbit readout
Latitude
Unknown
Longitude
Unknown
Altitude
Unknown
Speed
Unknown
Apparent Right ascension
Unknown
Apparent Declination
Unknown
Sunlit
N/A
Visualization observer readout
Local Sidereal Time
03:35:31
Azimuth
Unknown
Elevation
Unknown
Doppler factor
Unknown
Orbital elements
Apogee altitude
1,794.136 km
Perigee altitude
1,497.109 km
Semi-major axis
8,023.759 km
Eccentricity
0.01851
Inclination
102.2611°
RAAN
163.4919°
Arg. of periapsis
120.7183°
True anomaly
268.33706°
Mean anomaly
270.4579°
Eccentric anomaly
269.39746°
Mean motion
3.01979 °/min
Orbital period
119.21 mins
BSTAR
0.00011629
Loading maneuver chart data...
Computing Atmospheric mass density...
Loading historical data...
Loading historical data...
Loading historical data...
Loading historical data...
Loading historical data...
Loading historical data...
Loading historical data...

Documentation

Showing up to 5 results
|